Regional Weather Roundup
Issued by NWS Grand Forks, ND

Home | Current Version | Previous Version | Graphics & Text | Print | Product List | Glossary On
Versions: 1 2 3 4 5 6 7 8 9 10 11 12 13 14 15 16 17 18 19 20 21 22 23 24 25 26 27 28 29 30 31 32 33 34 35 36 37 38 39 40 41 42 43 44 45 46 47 48 49 50
000
ASUS43 KFGF 291610
RWRFGF
PRAIRIE TO PINES  WEATHER ROUNDUP
NATIONAL WEATHER SERVICE EASTERN NORTH DAKOTA/GRAND FORKS ND
1000 AM CST THU JAN 29 2015

 **SATELLITE DATA USED TO AUGMENT SKY COVER AT AUTOMATED STATIONS**
 *****  WEATHER ACROSS EASTERN NORTH DAKOTA  *****

CITY           SKY/WX    TMP DP  RH WIND       PRES   REMARKS
GRAND FORKS    CLOUDY    13   5  70 N23       30.47R WCI  -6
GRAND FRKS AFB CLOUDY    12   5  73 N18G24    30.48R WCI  -5
GRAND FRKS NWS   N/A     10 N/A N/A N32         N/A  WCI -12
DEVILS LAKE    CLOUDY    14  10  85 N14       30.45R WCI  -1
FARGO          FLURRIES  19  10  68 N26G36    30.43R WCI   1
WAHPETON ARPT  CLOUDY    21  16  79 N18G24    30.41R WCI   6
$$

 ***** WEATHER ACROSS CENTRAL AND WESTERN NORTH DAKOTA  *****

CITY           SKY/WX    TMP DP  RH WIND       PRES   REMARKS
BISMARCK       CLOUDY    27  19  72 N14G24    30.47R WCI  16
MINOT          LGT SNOW  18  12  77 NW18      30.48R WCI   2
JAMESTOWN      LGT SNOW  20  14  77 NW22G30   30.43R WCI   3
MINOT AFB      LGT SNOW  17  16  96 N16       30.49R FOG     WCI   1
GARRISON         N/A     25  19  78 N16       30.45R WCI  12
WILLISTON      CLOUDY    22  17  81 NW9       30.49S WCI  12
DICKINSON      SUNNY     28  22  78 W16       30.42R WCI  16
HETTINGER      CLOUDY    27  21  78 NW10      30.46R WCI  17
$$

 *****  OTHER AIRPORT OBSERVATIONS IN OUR AREA  *****

CITY           SKY/WX    TMP DP  RH WIND       PRES   REMARKS
WALHALLA         N/A      9   5  85 N22G30    30.51R WCI -11
GRAFTON AIRPOR NOT AVBL
VALLEY CITY AR LGT SNOW  19  19 100 N20G26    30.42R WCI   4
CANDO          LGT SNOW  14   9  79 N10       30.48R WCI   1
CAVALIER APRT  CLOUDY     9   1  72 N23G29    30.50R WCI -12
GWINNER        CLOUDY    28  25  86 N16       30.42R WCI  17
ROLLA          CLOUDY     9   7  92 MISG      30.46R
 ***** THE ABOVE OBSERVATIONS ARE NON NWS ARE NOT QUALITY
       CONTROLLED AND MAY MIS-REPORT RAIN FOR SNOW...
$$

  *****  WEATHER ACROSS NORTHERN MINNESOTA  *****

CITY           SKY/WX    TMP DP  RH WIND       PRES   REMARKS
FLAG ISLAND    CLOUDY     3  -2  78 NW23      30.34R HAZE    WCI -19
WARROAD        PTSUNNY    3  -2  78 NW18      30.37R WCI -17
ROSEAU         CLOUDY     5   0  78 NW15      30.39R WCI -13
HALLOCK        CLOUDY     9   1  72 N26G32    30.46R WCI -13
THF RVR FALLS  CLOUDY     9   3  78 N22       30.40R WCI -11
BAUDETTE       CLOUDY     4  -1  80 NW21G31   30.31R WCI -17
WASKISH        FLURRIES  10   7  85 NW13G20   30.31R WCI  -5
CROOKSTON      CLOUDY     9   5  85 N28G35    30.46R WCI -13
STEPHEN NDAWN    N/A      9   3  78 N20         N/A  WCI -11
GREENBUSH NDAW   N/A      7   3  85 NW18        N/A  WCI -12
$$
  *****  WEATHER ACROSS CENTRAL AND WEST MINNESOTA  *****

CITY           SKY/WX    TMP DP  RH WIND       PRES   REMARKS
FOSSTON        LGT SNOW   9   3  78 NW20G25   30.37R WCI -11
BEMIDJI        FLURRIES  12   7  82 NW22      30.28R WCI  -7
PARK RAPIDS    CLOUDY    16  11  80 NW15G31   30.26R WCI   1
ELBOW LAKE     CLOUDY    19  14  82 N24G32    30.34R WCI   1
WADENA         CLOUDY    16  12  86 NW17G28   30.29R WCI   0
DETROIT LAKES  LGT SNOW  14  10  85 NW24G30   30.35R WCI  -5
MOORHEAD       MIX PCPN  19  16  86 N23       30.42R WCI   2
FERGUS FALLS   CLOUDY    18  14  86 N17G30    30.40R WCI   2
MORRIS MN      CLOUDY    21  16  79 NW25G37   30.34R WCI   4
STAPLES        CLOUDY    18  16  93 NW20      30.27R WCI   1
$$
  *****  WEATHER ELSEWHERE ACROSS MINNESOTA  *****

CITY           SKY/WX    TMP DP  RH WIND       PRES   REMARKS
DULUTH         CLOUDY    24  19  81 NW16G25   30.08R WCI  11
INTRNTL FALLS  LGT SNOW  13   7  77 NW18      30.22R WCI  -4
ELY            FLURRIES  18  14  86 NW13G23   30.08R WCI   4
CLOQUET        CLOUDY    25  18  74 NW16G26   30.11R WCI  12
WHEATON        CLOUDY    21  16  79 NW21G28   30.41R WCI   6
BRAINERD       CLOUDY    21  16  81 NW18      30.23R WCI   6
HIBBING        MIX PCPN  20  13  74 NW24G30   30.13R WCI   3
ALEXANDRIA     CLOUDY    19  13  77 NW15G24   30.30R WCI   5
SAINT CLOUD    CLOUDY    26  18  71 NW15G30   30.23R WCI  14
MINNEAPOLIS    CLOUDY    30  22  72 NW22G30   30.19R WCI  17
$$

  *****  WEATHER ACROSS SOUTH DAKOTA  *****

CITY           SKY/WX    TMP DP  RH WIND       PRES   REMARKS
SIOUX FALLS    CLOUDY    31  24  75 NW20      30.36R WCI  19
BROOKINGS      NOT AVBL
WATERTOWN      CLOUDY    27  22  81 N22       30.35R WCI  13
HURON          CLOUDY    32  24  72 NW21G26   30.42R WCI  20
SISSETON       NOT AVBL
ABERDEEN       CLOUDY    29  22  75 N17       30.44R WCI  17
MITCHELL       CLOUDY    34  25  69 N21G31    30.42R WCI  22
PIERRE         SUNNY     33  23  66 NW14      30.45R WCI  23
MOBRIDGE       CLOUDY    30  21  69 NW21G28   30.43R WCI  17
RAPID CITY     SUNNY     28  22  78 CALM      30.46R
$$

  *****  SOME WEATHER IN NEARBY STATES *****

CITY           SKY/WX    TMP DP  RH WIND       PRES   REMARKS
GLASGOW MT     FOG       24  22  91 SE8       30.45R VSB<1/4 WCI  15
GREAT FALLS MT CLEAR     32  25  75 S10       30.32S WCI  24
CHEYENNE WY    SUNNY     35  24  64 W8        30.46R
SCOTTSBLUFF NE SUNNY     34  24  67 NW12      30.48S
OMAHA NE       CLOUDY    37  27  67 N25G38    30.34R
DES MOINES IA  CLOUDY    35  27  72 N15G25    30.22R
DAVENPORT IA   CLOUDY    34  28  79 NW16      30.03R WCI  24
CHICAGO IL     CLOUDY    33  27  78 NW23      29.86R WCI  21
EAU CLAIRE WI  CLOUDY    32  23  69 NW20G28   30.07R WCI  20
LA CROSSE WI   CLOUDY    36  26  67 N20G37    30.05R
$$

  *****  SOME NATIONAL WEATHER *****

CITY           SKY/WX    TMP DP  RH WIND       PRES   REMARKS
LA GUARDIA NY  PTSUNNY   26   6  42 NE7       30.31F WCI  18
RALEIGH NC     PTSUNNY   38  10  31 S7        30.33F
ATLANTA GA     PTSUNNY   46  28  49 S10       30.30R
NEW ORLEANS LA MOSUNNY   67  55  65 S8        30.27R
OKLAHOMA CITY  PTSUNNY   48  32  53 N30G40    30.37R
ALBUQUERQUE NM CLOUDY    48  29  47 E26G37    30.38R
SALT LAKE CITY MOSUNNY   31  30  96 CALM      30.36S
LOS ANGELES CA CLOUDY    62  45  53 E6        30.04R
BOISE ID       PTCLDY    32  31  96 CALM      30.43R
SEATTLE WA     MOCLDY    38  37  97 N6        30.35S
$$

*** WEATHER ACROSS MANITOBA...SASKATCHEWAN AND ONTARIO ***
                ***ONTARIO***

CITY           SKY/WX    TMP DP  RH WIND       PRES   REMARKS
GERALDTON      LGT SNOW   1  -4  78 N12G23    29.97R DRFTSNOWWCI -15
THUNDER BAY    FLURRIES  18   9  68 NW18G26   30.03R WCI   2
SIOUX LOOKOUT  LGT SNOW   5   0  78 NW16      30.19R WCI -14
TORONTO        CLOUDY    30  12  47 SE12G21   29.83F WCI  21
BIG TROUT LK   SUNNY    -13 -20  70 NW12      30.25R WCI -33
PICKLE LAKE    CRYSTALS  -4 -11  71 N8        30.17R WCI -19
DRYDEN         LGT SNOW   7   3  85 NW8       30.21R WCI  -6
KENORA         LGT SNOW   3   0  85 NW14G21   30.28R BLWGSNOWWCI -15
$$
                *** MANITOBA***

CITY           SKY/WX    TMP DP  RH WIND       PRES   REMARKS
BRANDON        FLURRIES   9   3  78 NW10      30.52R WCI  -6
DAUPHIN        SUNNY     -2  -8  78 N6        30.59R WCI -14
ISLAND LAKE    SUNNY    -13 -20  70 W9        30.40  WCI -31
PILOT MOUND      N/A      5   1  85 N13         N/A  WCI -12
THE PAS        PTCLDY   -13 -18  77 NW8       30.58S WCI -30
THOMPSON       CLEAR    -17 -24  70 W9        30.44S WCI -36
WINNIPEG       PTSUNNY    3  -4  72 NW23      30.52R WCI -19
LYNN LAKE      CLEAR    -20 -27  69 W6        30.42S WCI -36
CHURCHILL      CRYSTALS -24 -31  69 W13       30.27R WCI -48
GILLAM         CLEAR    -20 -27  69 W12       30.35S WCI -42
$$
                ***SASKATCHEWAN***

CITY           SKY/WX    TMP DP  RH WIND       PRES   REMARKS
ESTEVAN        LGT SNOW  16  12  86 N9        30.48S DRFTSNOWWCI   4
KINDERSLEY     MOCLDY    12   7  79 SE7       30.37F WCI   2
LLOYDMINSTER   MOCLDY     3   0  85 SE8       30.37S WCI -10
PRINCE ALBERT  FLURRIES   0  -4  85 VRB2      30.52F
REGINA         LGT SNOW  12  10  92 N5        30.48S FOG     WCI   4
YORKTON        CLOUDY     5   0  78 N7        30.51S WCI  -7
N. BATTLEFORD  FLURRIES   9   5  85 SE8       30.46F WCI  -4
LA RONGE       CLEAR    -18 -24  76 CALM      30.53F
SASKATOON      FLURRIES   3   0  85 E9        30.50F WCI -11
SWIFT CURRENT  MOCLDY    18  16  93 SE9       30.36F WCI   6
$$
NOTE: THESE ARE AUTOMATED STATIONS WITH LIMITED QUALITY CONTROL
      "FAIR" INDICATES FEW OR NO CLOUDS BELOW 12,000 FEET WITH NO
      SIGNIFICANT WEATHER AND/OR OBSTRUCTIONS TO VISIBILITY.
      SKY/WX - SKY CONDITION AND SIGNIFICANT WEATHER.
      TMP - AIR TEMPERATURE.    DP   - DEWPOINT TEMPERATURE.
      RH  - RELATIVE HUMIDITY.  PRES - PRESSURE.
      HX  - HEAT INDEX.         WCI  - WIND CHILL INDEX.
$



USA.gov is the U.S. government's official web portal to all federal, state and local government web resources and services.